Orbital Elements at Epoch 2459200.5 (2020-Dec-17.0) TDB
Reference: JPL 27 (heliocentric ecliptic J2000)
Element | Value | Uncertainty (1-sigma) | Units |
e | .3073798223136225 | 3.6895e-08 | |
a | 2.698062144117441 | 8.0159e-09 | au |
q | 1.868732281667511 | 1.0112e-07 | au |
i | 8.906527142614328 | 4.3674e-06 | deg |
node | 344.2500811155225 | 2.4638e-05 | deg |
peri | 11.23060533750416 | 2.5318e-05 | deg |
M | 2.83495998165531 | 6.5227e-06 | deg |
tp | 2459187.752624424070 (2020-Dec-04.25262442) | 2.9301e-05 | TDB |
period | 1618.737208648518 4.43 | 7.2138e-06 1.975e-08 | d yr |
n | .2223955797621799 | 9.911e-10 | deg/d |
Q | 3.527392006567371 | 1.048e-08 | au |
|
| | Orbit Determination Parameters
Additional Information
|